Location: Wald
(31.7579°N, 86.6655°W)
Time: 21:05:29
(UTC+00:00)

CZ-2C R/B - Pass Details

Date: 14 July 2020
Orbit: 667 x 785 km, 98.2° (Epoch: 13 August)

Event Time Altitude Azimuth Distance (km) Brightness Sun altitude
Rises 08:56:18 0° 28° (NNE) 3,086 7.0 -20.9°
Reaches altitude 10° 08:58:59 10° 43° (NE) 2,145 6.0 -20.5°
Maximum altitude 09:02:43 24° 96° (E) 1,414 4.3 -19.9°
Drops below altitude 10° 09:06:23 10° 149° (SSE) 2,096 4.6 -19.3°
Enters shadow 09:07:45 - 158° (SSE) 2,559 5.0 -19.1°
